Kapolei, HI

11:41 AM HST on February 25, 2017 (GMT -1000)
Kalaeloa (John Rodgers Field)

Weather History for PHJR - March, 2014

Change the Weather History Date:

Monday, March 31, 2014

  Actual Average (PHNL) Record (PHNL)
Temperature  
Mean Temperature 76 °F -  
Max Temperature 84 °F 82 °F 87 °F (1974)
Min Temperature 69 °F 67 °F 62 °F (1979)
Cooling Degree Days 12    
Growing Degree Days 26 (Base 50)    
Moisture  
Dew Point 64 °F    
Average Humidity 68    
Maximum Humidity 83    
Minimum Humidity 51    
Precipitation  
Precipitation 0.00 in - - ()
Sea Level Pressure  
Sea Level Pressure 30.03 in    
Wind  
Wind Speed 6 mph (ENE)    
Max Wind Speed 14 mph    
Max Gust Speed 22 mph    
Visibility 10 miles    
Events      
Averages and records for this station are not official NWS values.
T = Trace of Precipitation, MM = Missing Value Source: NWS Daily Summary

Daily Weather History Graph

Daily Weather History Graph

Search for Another Location

Airport or City:

Trip Planner

Search our weather history database for the weather conditions in past years. The results will help you decide how hot, cold, wet, or windy it might be!

Date:

Astronomy

Mar. 31, 2014 Rise Set
Actual Time 6:26 AM HST 6:46 PM HST
Civil Twilight 6:03 AM HST 7:09 PM HST
Nautical Twilight 5:37 AM HST 7:35 PM HST
Astronomical Twilight 5:11 AM HST 8:01 PM HST
Moon 7:05 AM HST (3/31) 8:04 PM HST (3/31)
Length of Visible Light 13h 05m
Length of Day
12h 20m
New Moon, 2% of the Moon is Illuminated
Mar 31
New Moon
Apr 6
First Quarter
Apr 14
Full
Apr 21
Last Quarter
Apr 28
New

Hourly Weather History & Observations

Time (HST) Temp. Heat Index Dew Point Humidity Pressure Visibility Wind Dir Wind Speed Gust Speed Precip Events Conditions
12:53 AM 71.1 °F - 62.1 °F 73% 30.05 in 10.0 mi Variable 3.5 mph - N/A   Clear
1:53 AM 71.1 °F - 63.0 °F 75% 30.03 in 10.0 mi Variable 4.6 mph - N/A   Partly Cloudy
2:53 AM 71.1 °F - 64.0 °F 78% 30.00 in 10.0 mi NE 3.5 mph - N/A   Clear
3:53 AM 71.1 °F - 63.0 °F 75% 29.99 in 10.0 mi Variable 3.5 mph - N/A   Clear
4:53 AM 71.1 °F - 64.0 °F 78% 29.99 in 10.0 mi ENE 4.6 mph - N/A   Clear
5:05 AM 69.8 °F - 64.4 °F 83% 29.98 in 10.0 mi Variable 4.6 mph - N/A   Partly Cloudy
5:53 AM 70.0 °F - 64.0 °F 81% 30.01 in 10.0 mi ENE 3.5 mph - N/A   Partly Cloudy
6:53 AM 71.1 °F - 64.9 °F 81% 30.03 in 10.0 mi Variable 3.5 mph - N/A   Mostly Cloudy
7:53 AM 75.0 °F - 66.0 °F 73% 30.04 in 10.0 mi Variable 4.6 mph - N/A   Clear
8:53 AM 78.1 °F - 66.9 °F 68% 30.06 in 10.0 mi ENE 9.2 mph - N/A   Clear
9:53 AM 80.1 °F 82.1 °F 66.0 °F 62% 30.07 in 10.0 mi ENE 11.5 mph 17.3 mph N/A   Mostly Cloudy
10:53 AM 80.1 °F 82.1 °F 66.0 °F 62% 30.07 in 10.0 mi ENE 10.4 mph - N/A   Clear
11:53 AM 84.0 °F 85.4 °F 64.0 °F 51% 30.05 in 10.0 mi Variable 6.9 mph 18.4 mph N/A   Partly Cloudy
12:53 PM 82.9 °F 84.4 °F 64.0 °F 53% 30.03 in 10.0 mi East 9.2 mph 18.4 mph N/A   Mostly Cloudy
1:53 PM 82.9 °F 84.4 °F 64.0 °F 53% 30.01 in 10.0 mi ESE 13.8 mph 21.9 mph N/A   Mostly Cloudy
2:53 PM 81.0 °F 82.5 °F 64.0 °F 56% 30.00 in 10.0 mi ENE 9.2 mph 18.4 mph N/A   Mostly Cloudy
3:53 PM 81.0 °F 82.5 °F 64.0 °F 56% 29.99 in 10.0 mi Variable 5.8 mph - N/A   Mostly Cloudy
4:53 PM 80.1 °F 81.5 °F 63.0 °F 56% 29.99 in 10.0 mi East 8.1 mph 17.3 mph N/A   Scattered Clouds
5:53 PM 78.1 °F - 64.0 °F 62% 30.00 in 10.0 mi ENE 8.1 mph 18.4 mph N/A   Partly Cloudy
6:53 PM 75.9 °F - 64.0 °F 67% 30.02 in 10.0 mi ENE 8.1 mph - N/A   Clear
7:53 PM 75.0 °F - 64.0 °F 69% 30.05 in 10.0 mi ENE 5.8 mph - N/A   Partly Cloudy
8:53 PM 73.9 °F - 64.9 °F 73% 30.07 in 10.0 mi ENE 4.6 mph - N/A   Clear
9:53 PM 73.0 °F - 64.9 °F 76% 30.09 in 10.0 mi East 4.6 mph - N/A   Partly Cloudy
10:53 PM 73.0 °F - 64.0 °F 73% 30.09 in 10.0 mi ENE 4.6 mph - N/A   Clear
11:53 PM 71.1 °F - 64.0 °F 78% 30.08 in 10.0 mi ENE 3.5 mph - N/A   Clear